Location: The Saddle
(36.8333°N, 80.3417°W)
Time: 13:10:26
(UTC-04:00)

Courier 1B - Pass Details

Date: 23 September 2024
Orbit: 962 x 1208 km, 28.3° (Epoch: 06 October)

Event Time Altitude Azimuth Distance (km) Brightness Sun altitude
Rises 12:56:08 0° 245° (WSW) 3,659 10.7 52.5°
Reaches altitude 10° 12:58:55 10° 238° (WSW) 2,733 10.2 52.6°
Maximum altitude 13:04:58 38° 172° (S) 1,492 10.5 52.7°
Drops below altitude 10° 13:11:20 10° 106° (ESE) 2,878 10.2 52.7°
Sets 13:14:20 0° 99° (E) 3,875 10.7 52.7°
